[[{"header":{"parameterUnit":"m.s-1","parameterCategory":1,"la1":30.2991,"la2":30.254,"lo1":-89.0895,"lo2":-89.0444,"dy":0.0017,"dx":0.0017,"nx":28,"ny":28,"refTime":"2023-08-04T09:00:00:Z","depth":0,"parameterNumber":2,"parameterNumberName":"U-component_of_WINDS"},"data":[0,0,0,0,0,0,0,0,0,0,0,0,0,0,0,0,0,0,0,0,0,0,0,0,0,0,0,0,0,0,0,0,0,0,0,0,0,0,0,0,0,0,0,0,0,0,0,0,0,0,0,0,0,0,0,0,0,0,1.4064,1.4064,0,1.4097,1.4098,1.4098,1.4095,1.4094,1.4094,1.4093,1.4125,1.4127,1.4128,0,0,0,0,0,0,0,0,0,0,0,0,0,1.3994,1.3995,1.4064,1.4064,1.4065,1.4097,1.4098,1.4098,1.4095,1.4094,1.4093,1.4093,1.4125,1.4126,1.4128,0,0,0,0,0,0,0,0,0,0,0,0,0,1.4026,1.3996,1.4064,1.4067,1.4068,1.4097,1.4098,1.4098,1.4095,1.4094,1.4093,1.4092,1.4124,1.4126,1.4128,1.4156,0,0,1.4134,1.4135,0,0,0,0,0,0,0,0,1.4024,1.4028,1.4066,1.4067,1.4068,1.4091,1.4085,1.4118,1.4095,1.4084,1.4093,1.4092,1.4114,1.4117,1.4125,1.4158,1.4159,1.4135,1.4136,1.4137,1.4137,0,0,0,0,0,0,0,1.4022,1.4027,1.4077,1.4067,1.4068,1.4066,1.4069,1.4091,1.4103,1.4085,1.4085,1.4089,1.4115,1.4123,1.4126,1.416,1.4134,1.4136,1.4137,1.4138,1.4214,1.4215,0,0,0,0,0,0,1.4019,1.4025,1.4076,1.4078,1.4043,1.4068,1.4072,1.4084,1.4103,1.4105,1.409,1.4089,1.412,1.4123,1.4127,1.4159,1.4137,1.4138,1.414,1.4213,1.4214,1.4215,0,0,0,0,0,0,1.4018,1.4024,1.4075,1.4051,1.4058,1.407,1.4084,1.4085,1.4094,1.4107,1.4108,1.4097,1.412,1.4124,1.4148,1.416,1.4139,1.4141,1.4212,1.4214,1.4215,1.4225,0,0,0,0,0,0,1.4016,1.4023,1.4035,1.4052,1.4059,1.4097,1.4085,1.4087,1.4098,1.4097,1.4113,1.4115,1.4119,1.4145,1.415,1.4163,1.4143,1.4211,1.4213,1.4214,1.4224,1.4226,1.4229,0,0,0,0,0,1.4013,1.4037,1.4035,1.4042,1.4074,1.4098,1.4102,1.4106,1.4099,1.411,1.4117,1.4115,1.4158,1.4148,1.4154,1.4167,1.4211,1.4212,1.4214,1.4222,1.4226,1.4229,0,0,0,0,0,0,1.4021,1.4039,1.4038,1.4068,1.4081,1.4097,1.4111,1.411,1.4126,1.4124,1.4129,1.4132,1.4157,1.4164,1.4152,1.4193,1.4183,1.4186,1.4187,1.4191,1.4193,1.419,1.4144,0,0,0,0,0,1.4026,1.4044,1.4059,1.4084,1.409,1.41,1.411,1.4112,1.4126,1.4132,1.4141,1.4154,1.417,1.4181,1.4197,1.4225,1.4227,1.4236,1.4239,1.4241,1.4243,1.4256,1.426,1.4221,1.4221,1.4221,0,0,1.4036,1.4049,1.406,1.4085,1.4096,1.4113,1.4104,1.4124,1.4137,1.4135,1.4158,1.4165,1.418,1.4205,1.4217,1.4212,1.4254,1.4243,1.4245,1.4246,1.4258,1.4262,1.4265,1.4222,1.4222,1.4222,0,0,1.4065,1.4077,1.4098,1.4108,1.4124,1.413,1.4135,1.4151,1.4155,1.4179,1.4177,1.4192,1.4221,1.423,1.4239,1.4269,1.4266,1.4274,1.4287,1.4299,1.4302,1.4305,1.4314,1.4317,1.4276,1.4276,1.4276,0,1.4076,1.4103,1.4108,1.4128,1.4138,1.4137,1.4157,1.4167,1.4187,1.4194,1.4188,1.4223,1.4233,1.4259,1.4266,1.4274,1.4278,1.4272,1.4302,1.4304,1.4307,1.4315,1.4319,1.4277,1.4277,1.4277,1.4277,0,1.4115,1.4134,1.4149,1.4168,1.418,1.42,1.4206,1.4218,1.4219,1.4224,1.4247,1.4259,1.4276,1.4283,1.4284,1.4309,1.4305,1.4301,1.4291,1.4311,1.4319,1.4323,1.4278,1.4278,1.4277,1.4277,0,0,1.4149,1.417,1.4176,1.4183,1.42,1.4214,1.4233,1.425,1.4259,1.4273,1.4287,1.4311,1.4306,1.4316,1.4318,1.4329,1.435,1.4323,1.4323,1.4326,1.4376,1.4378,1.4382,1.4348,1.4349,1.4349,1.4374,0,1.4178,1.4212,1.4216,1.4245,1.4262,1.426,1.4276,1.4287,1.4293,1.4306,1.4312,1.4328,1.4322,1.4327,1.4338,1.4345,1.4359,1.4343,1.436,1.4361,1.4356,1.4386,1.4389,1.4412,1.4377,1.4378,1.4378,0,1.4216,1.4231,1.4261,1.4274,1.4281,1.4296,1.431,1.4324,1.4336,1.4339,1.4349,1.435,1.4367,1.4357,1.438,1.4369,1.4376,1.438,1.4381,1.4382,1.437,1.4387,1.4419,1.4422,1.4383,1.4383,1.4383,0,1.4236,1.4263,1.4284,1.4291,1.4307,1.4317,1.4324,1.4335,1.4345,1.4358,1.4363,1.4378,1.4386,1.4396,1.44,1.4392,1.4422,1.4413,1.4424,1.4424,1.443,1.4429,1.4463,1.4437,1.4437,1.4437,1.4437,0,1.4267,1.4285,1.4293,1.4306,1.4326,1.433,1.435,1.4356,1.4366,1.4379,1.4379,1.4391,1.4396,1.4408,1.4411,1.4429,1.4433,1.4435,1.4435,1.4434,1.4434,1.4438,1.4436,1.4437,1.4437,1.4437,1.4437,0,1.4292,1.4298,1.4321,1.4334,1.4338,1.4352,1.4362,1.4374,1.4379,1.4395,1.4399,1.4407,1.4422,1.4426,1.4444,1.4446,1.4466,1.4466,1.4462,1.4462,1.4473,1.4471,1.4509,1.4514,1.4486,1.4486,1.4486,0,1.4311,1.4325,1.4339,1.4348,1.4355,1.437,1.4379,1.4383,1.4392,1.4406,1.4416,1.443,1.4442,1.4465,1.4471,1.4485,1.4484,1.4496,1.4486,1.4484,1.4482,1.4481,1.4481,1.4498,1.4498,1.4498,1.4499,0,1.4343,1.4345,1.4358,1.4372,1.4383,1.4395,1.4406,1.4413,1.4418,1.4428,1.4443,1.4452,1.447,1.4484,1.4497,1.4503,1.4501,1.4502,1.4505,1.4504,1.45,1.4501,1.4466,1.4501,1.4501,1.45,1.45,1.45,1.4364,1.4376,1.4387,1.4401,1.441,1.442,1.4431,1.4437,1.445,1.4464,1.4466,1.4481,1.4491,1.4508,1.4515,1.4526,1.4523,1.4528,1.4529,1.4529,1.4529,1.4499,1.4529,1.4529,1.4529,1.4529,1.4529,0,1.4395,1.4401,1.4415,1.443,1.4441,1.4438,1.445,1.4459,1.4473,1.4482,1.4494,1.451,1.4523,1.453,1.4542,1.455,1.4549,1.4553,1.4552,1.4553,1.4533,1.4528,1.4553,1.4553,1.4553,1.4553,1.4553,1.4553,1.4412,1.443,1.4433,1.4456,1.4462,1.4478,1.4484,1.4493,1.45,1.4518,1.4529,1.4533,1.4541,1.4554,1.4566,1.4567,1.4571,1.4575,1.4576,1.4557,1.4555,1.4552,1.4548,1.4576,1.4576,1.4595,1.4595,1.4595]},{"header":{"parameterUnit":"m.s-1","parameterCategory":1,"la1":30.2991,"la2":30.254,"lo1":-89.0895,"lo2":-89.0444,"dy":0.0017,"dx":0.0017,"nx":28,"ny":28,"refTime":"2023-08-04T09:00:00:Z","depth":0,"parameterNumber":3,"parameterNumberName":"V-component_of_WINDS"},"data":[0,0,0,0,0,0,0,0,0,0,0,0,0,0,0,0,0,0,0,0,0,0,0,0,0,0,0,0,0,0,0,0,0,0,0,0,0,0,0,0,0,0,0,0,0,0,0,0,0,0,0,0,0,0,0,0,0,0,4.2676,4.2676,0,4.2653,4.2653,4.2653,4.2579,4.2578,4.2576,4.2574,4.2552,4.2553,4.2554,0,0,0,0,0,0,0,0,0,0,0,0,0,4.2655,4.2656,4.2676,4.2676,4.2675,4.2653,4.2653,4.2653,4.258,4.2578,4.2576,4.2574,4.2552,4.2553,4.2554,0,0,0,0,0,0,0,0,0,0,0,0,0,4.2652,4.2656,4.2676,4.2636,4.2632,4.2654,4.2653,4.2653,4.258,4.2577,4.2575,4.2573,4.2552,4.2553,4.2554,4.2613,0,0,4.2559,4.2559,0,0,0,0,0,0,0,0,4.2652,4.2653,4.2642,4.2639,4.2635,4.2617,4.2638,4.2639,4.2581,4.26,4.2574,4.2571,4.2576,4.2575,4.2576,4.2612,4.2611,4.2559,4.256,4.256,4.2561,0,0,0,0,0,0,0,4.2652,4.2653,4.2667,4.2642,4.2638,4.2619,4.2616,4.2638,4.2602,4.2598,4.2593,4.2591,4.2573,4.2575,4.2575,4.261,4.2559,4.256,4.2561,4.2561,4.269,4.2693,0,0,0,0,0,0,4.2658,4.2654,4.2668,4.2666,4.2637,4.2622,4.2618,4.2625,4.2601,4.2596,4.2593,4.2588,4.2574,4.2574,4.2574,4.2639,4.256,4.2562,4.2562,4.2688,4.2691,4.2694,0,0,0,0,0,0,4.2658,4.266,4.2669,4.2659,4.2658,4.2625,4.2633,4.2626,4.2627,4.2598,4.2591,4.2601,4.2572,4.2572,4.2603,4.2637,4.2562,4.2564,4.2685,4.2689,4.2692,4.277,0,0,0,0,0,0,4.2658,4.2661,4.2682,4.266,4.2659,4.2698,4.2635,4.2627,4.263,4.2623,4.2604,4.2598,4.257,4.2601,4.2604,4.2638,4.2565,4.2681,4.2687,4.2691,4.2765,4.2776,4.2787,0,0,0,0,0,4.2657,4.2706,4.2684,4.2686,4.2686,4.27,4.27,4.2666,4.2633,4.2654,4.2635,4.2599,4.2634,4.2605,4.2608,4.2642,4.2679,4.2685,4.2691,4.276,4.2774,4.2786,0,0,0,0,0,0,4.2734,4.2702,4.2677,4.272,4.2713,4.2688,4.2714,4.2683,4.2685,4.2678,4.2636,4.2633,4.2669,4.2659,4.2628,4.2697,4.265,4.2657,4.2702,4.2715,4.2726,4.2727,4.2566,0,0,0,0,0,4.2756,4.277,4.2742,4.2782,4.278,4.2748,4.2753,4.2727,4.2719,4.2716,4.2699,4.2692,4.2701,4.2708,4.2715,4.2763,4.2757,4.2788,4.2799,4.2809,4.2814,4.2838,4.285,4.2713,4.2713,4.2713,0,0,4.2801,4.2786,4.2797,4.2797,4.2789,4.2804,4.2746,4.2765,4.2776,4.2719,4.2746,4.2734,4.2723,4.2763,4.278,4.2756,4.2851,4.2816,4.2824,4.2824,4.2845,4.2858,4.287,4.2717,4.2716,4.2715,0,0,4.2891,4.2882,4.2913,4.2906,4.2894,4.2872,4.288,4.2859,4.2848,4.2875,4.2832,4.2844,4.2861,4.2855,4.2854,4.2942,4.2908,4.2945,4.3002,4.3025,4.3036,4.3045,4.3075,4.3086,4.2951,4.2952,4.2952,0,4.2949,4.297,4.2933,4.2955,4.2955,4.2904,4.2935,4.293,4.2922,4.2923,4.2896,4.2915,4.2905,4.2942,4.2963,4.2965,4.2971,4.2946,4.3037,4.3046,4.3055,4.3082,4.3093,4.2956,4.2955,4.2955,4.2955,0,4.3041,4.3056,4.3083,4.3075,4.3079,4.3106,4.3072,4.3081,4.3055,4.3036,4.3064,4.305,4.3052,4.3059,4.3035,4.3092,4.3077,4.3045,4.2997,4.3073,4.3098,4.3108,4.2962,4.2961,4.2959,4.2958,0,0,4.3177,4.3148,4.3158,4.3153,4.3136,4.3148,4.3172,4.3173,4.3181,4.3177,4.3195,4.321,4.318,4.3179,4.3153,4.3174,4.3242,4.3139,4.3138,4.3157,4.3302,4.3325,4.3338,4.322,4.3222,4.3223,4.3302,0,4.3261,4.3299,4.3267,4.3311,4.3324,4.3276,4.3296,4.3288,4.3271,4.328,4.3261,4.3272,4.3232,4.323,4.3249,4.323,4.327,4.3224,4.3235,4.3236,4.3237,4.3351,4.3376,4.3451,4.3312,4.3314,4.3315,0,4.3363,4.3363,4.3408,4.3387,4.3391,4.341,4.3408,4.3418,4.3407,4.3393,4.3392,4.3361,4.3382,4.3337,4.3365,4.3335,4.3338,4.3329,4.3331,4.3329,4.3279,4.3351,4.3474,4.3485,4.333,4.3329,4.3328,0,4.3456,4.3467,4.3495,4.3492,4.3469,4.3483,4.3474,4.3461,4.3464,4.3463,4.3464,4.3466,4.3466,4.3468,4.3438,4.3408,4.347,4.3422,4.3458,4.3459,4.3472,4.3471,4.3596,4.3477,4.3477,4.3477,4.3477,0,4.3551,4.3581,4.3536,4.3553,4.3584,4.3547,4.3579,4.3565,4.3553,4.3567,4.3526,4.3539,4.3499,4.3508,4.3485,4.3511,4.3512,4.3501,4.3494,4.3503,4.3505,4.3503,4.3497,4.348,4.3479,4.3479,4.3478,0,4.3659,4.3631,4.3658,4.3633,4.3627,4.3651,4.363,4.3645,4.3625,4.3642,4.3644,4.3613,4.3622,4.3592,4.3596,4.3581,4.3619,4.3604,4.3622,4.3617,4.3653,4.3649,4.378,4.3794,4.3669,4.367,4.3671,0,4.3721,4.3742,4.3719,4.3725,4.3718,4.3728,4.373,4.3694,4.3698,4.3687,4.3703,4.3708,4.371,4.3726,4.3704,4.3707,4.3691,4.3736,4.3691,4.3699,4.3689,4.3687,4.3689,4.3745,4.3747,4.3748,4.3749,0,4.3833,4.3818,4.3822,4.3822,4.3825,4.3824,4.3819,4.3826,4.3787,4.3794,4.3802,4.3803,4.3807,4.3812,4.381,4.38,4.3768,4.3764,4.3772,4.3781,4.3789,4.3783,4.3645,4.3761,4.3759,4.3759,4.3758,4.3758,4.3918,4.3934,4.392,4.3926,4.3919,4.3915,4.3927,4.3909,4.3915,4.3914,4.3893,4.3905,4.3893,4.3887,4.388,4.3889,4.3868,4.388,4.3883,4.3886,4.3891,4.379,4.3889,4.3888,4.3888,4.3888,4.3888,0,4.4026,4.4015,4.4021,4.4015,4.402,4.3989,4.3982,4.3988,4.3999,4.3991,4.3993,4.4002,4.4007,4.3985,4.3987,4.3998,4.3983,4.3999,4.3997,4.3995,4.3911,4.3903,4.4011,4.4011,4.4011,4.4011,4.4011,4.4011,4.4083,4.4107,4.4091,4.4111,4.4099,4.411,4.4108,4.4105,4.4097,4.4109,4.4112,4.4098,4.4084,4.4084,4.4087,4.408,4.4082,4.4103,4.4091,4.4013,4.4001,4.3989,4.3981,4.4104,4.4104,4.4174,4.4175,4.4175]}]]